Regional Weather Roundup
Issued by NWS Upton, NY

Current Version | Previous Version | Text Only | Print | Product List | Glossary On
Versions: 1 2 3 4 5 6 7 8 9 10 11 12 13 14 15 16 17 18 19 20 21 22 23 24 25 26 27 28 29 30 31 32 33 34 35 36 37 38 39 40 41 42 43 44 45 46 47 48 49
000
ASUS41 KOKX 021205
RWROKX

REGIONAL WEATHER ROUNDUP
NATIONAL WEATHER SERVICE NEW YORK NY
700 AM EST MON MAR 02 2015

NOTE: "FAIR" INDICATES FEW OR NO CLOUDS BELOW 12,000 FEET WITH NO
SIGNIFICANT WEATHER AND/OR OBSTRUCTIONS TO VISIBILITY.

NYZ071-072-176-178-NJZ106-104-021300-
NEW YORK CITY METRO AREA


CITY           SKY/WX    TMP DP  RH WIND       PRES   REMARKS
CENTRAL PARK   CLOUDY    32  25  75 W6        30.05R WCI  26
LAGUARDIA APRT CLOUDY    31  26  82 W6        30.04R WCI  25
KENNEDY INTL   CLOUDY    30  26  85 SW9       30.05R FOG     WCI  22
NEWARK/LIBERTY CLOUDY    31  28  89 W6        30.05R WCI  25
BRNX BOT. GARD   N/A    N/A N/A N/A W13       30.05R
TETERBORO      CLOUDY    29  24  82 NW6       30.04R WCI  23
$$

NYZ177-179-078>081-021300-
LONG ISLAND NEW YORK

CITY           SKY/WX    TMP DP  RH WIND       PRES   REMARKS
FARMINGDALE    CLOUDY    29  27  92 SW7       30.03R FOG     WCI  22
ISLIP          CLOUDY    29  26  89 W9        30.00S FOG     WCI  20
SHIRLEY        CLOUDY    30  27  88 SW6       30.02S FOG     WCI  24
WESTHAMPTON    CLOUDY    30  26  85 W6        30.01F FOG     WCI  24
MONTAUK POINT    N/A     30  26  85 W9        29.99F WCI  22
$$

NYZ052-065-067-021300-
HUDSON VALLEY

CITY           SKY/WX    TMP DP  RH WIND       PRES   REMARKS
WHITE PLAINS   MOCLDY    28  23  81 NW10      30.00R HAZE    WCI  19
NEWBURGH       CLOUDY    25  25 100 W12       30.02R WCI  14
MONTGOMERY     CLOUDY    30  24  78 W7        30.02R WCI  23
POUGHKEEPSIE   CLOUDY    25  21  85 CALM      30.02S FOG
ALBANY         CLOUDY    26  18  71 NW10      30.04S WCI  16
$$

NJZ001-105-106-008-010-013-015-019>022-104-021300-
NEW JERSEY

CITY           SKY/WX    TMP DP  RH WIND       PRES   REMARKS
NEWARK/LIBERTY CLOUDY    31  28  89 W6        30.05R WCI  25
TETERBORO      CLOUDY    29  24  82 NW6       30.04R WCI  23
CALDWELL       CLOUDY    27  23  85 CALM      30.06R FOG
MORRISTOWN     CLOUDY    27  25  93 CALM      30.04R
SOMERVILLE     CLOUDY    32  26  78 VRB6      30.05R HAZE    WCI  26
SUSSEX         MIX PCPN  25  21  85 S3        30.06R
ANDOVER          N/A     25  23  92 CALM      30.07R
TRENTON        CLOUDY    31  27  85 NW6       30.06R FOG     WCI  25
MILLVILLE      CLOUDY    32  31  96 W8        30.10R FOG     WCI  25
ATLANTIC CITY  CLOUDY    33  31  92 W8        30.09R FOG     WCI  26
WRIGHTSTOWN    CLOUDY    32  31  99 CALM      30.05R FOG
TOMS RIVER     CLOUDY    34  30  86 CALM      30.05S
BELMAR         CLOUDY    32  27  80 CALM      30.04R
$$

PAZ047>061-062-071-021300-
EASTERN PENNSYLVANIA

CITY           SKY/WX    TMP DP  RH WIND       PRES   REMARKS
PHILADELPHIA   CLOUDY    32  30  92 W9        30.11R FOG     WCI  24
ALLENTOWN      CLOUDY    28  24  85 W3        30.09R FOG
SCRANTON       LGT SNOW  26  23  88 SW3       30.06R
$$

CTZ002-004>006-009-010-012-RIZ004-006-007-MAZ004-011-015-021300-
SOUTHERN NEW ENGLAND
 IN CT

CITY           SKY/WX    TMP DP  RH WIND       PRES   REMARKS
BRADLEY INTL   MOCLDY    25  22  88 W3        29.97F
HARTFORD       CLOUDY    27  22  81 MISG      30.00F HAZE
DANBURY        CLOUDY    26  21  81 W3        30.00R
WTRBRY/OXFORD  CLOUDY    25  18  74 NW5       29.97S WCI  19
BRIDGEPORT     MOCLDY    28  26  92 SW6       30.00F WCI  22
MERIDEN        CLOUDY    25  22  88 S3        30.00S FOG
NEW HAVEN      CLOUDY    27  24  89 SW3       30.00S
CHESTER        PTSUNNY   27  25  93 W3        29.98S
GROTON         CLOUDY    27  24  89 W9        29.98F WCI  18
WILLIMANTIC    MOCLDY    26  22  84 S3        29.97F FOG

 IN RI

CITY           SKY/WX    TMP DP  RH WIND       PRES   REMARKS
PROVIDENCE     CLOUDY    27  23  85 SW7       29.96F WCI  19
BLOCK ISLAND   CLOUDY    28  25  86 W10G18    29.97S WCI  19
WESTERLY       CLOUDY    27  25  92 VRB5      29.99S WCI  22

 IN MA

CITY           SKY/WX    TMP DP  RH WIND       PRES   REMARKS
BOSTON         CLOUDY    29  22  75 W9        29.94F WCI  20
WORCESTER      PTCLDY    24  20  84 W17       29.88F WCI  11
WESTFIELD      LGT SNOW  19  16  88 CALM      29.97S VSB 3/4
PROVINCETOWN   MOCLDY    30  27  86 W13       29.94S WCI  20
NANTUCKET      CLOUDY    31  28  89 W15       29.95S WCI  20
$$

ANZ330-335-338-340-345-350-353-355-021300-
COASTAL MARINE OBSERVATIONS


STATION/POSITION TIME  SKY/WX   TEMP    WIND        PRES    VSBY  WAVE
                                AIR SEA DIR/SP/G                  HT/PER
                 (UTC)          (F)     (DEG/KT/KT) (MB)    (MI)  (FT/S)
NY HARB ENTRANCE 1200            33 37  270/ 12/ 14 1017.3          1/ 8
4S FIRE IS       NOT AVBL
20S FIRE ISLAND  1100               36              1017.3          2/ 9
23SW MTP         1200                                 N/A           3/ 3
HUDSON CANYON    NOT AVBL
EXECUTION ROCKS  NOT AVBL
WESTERN LI SOUND NOT AVBL
CENTRAL LI SOUND NOT AVBL
EASTERN LI SOUND NOT AVBL
ROBBINS REEF     1100            30     270/  7/  8 1016.0
$$


>>>>>>>>>>>>>>>>>>>>>>>>>>>> KEY <<<<<<<<<<<<<<<<<<<<<<<<<<<
>                                                          <
>     SKY/WX - SKY CONDITION/PRESENT WEATHER               <
>     TMP    - TEMPERATURE IN FAHRENHEIT                   <
>     DP     - DEWPOINT IN FAHRENHEIT                      <
>     RH     - RELATIVE HUMIDITY IN PERCENT                <
>     WIND   - DIRECTION AND SPEED IN MPH                  <
>     PRES   - MEAN SEA LEVEL PRESSURE IN INCHES OF HG     <
>     WCI    - WIND CHILL INDEX                            <
>     VSB    - VISIBILITY IN MILES                         <
>     HX     - HEAT INDEX                                  <
>     TC     - TEMPERATURE IN CELSIUS                      <
>     VRB    - VARIABLE WIND DIRECTION                     <
>                                                          <
>>>>>>>>>>>>>>>>>>>>>>>>>>>> KEY <<<<<<<<<<<<<<<<<<<<<<<<<<<




USA.gov is the U.S. government's official web portal to all federal, state and local government web resources and services.